This demonstration page uses our WeatherBlox Daily Observations layout. Learn more.

Left ArrowRight Arrow

32.84923, -109.75925

Hourly Observations for August 8, 2022

Temp ( °F °C ) Dew Point ( °F °C ) Humidity (%) Winds ( mph kmh ) Pressure ( in mb ) Visibility ( mi km ) Precip ( " mm )
12:51 am 00:51 Clear 74 23.3 66 18.9 76 76 N 6 9 29.91 1013 10 16 0.00 0.00
1:51 am 01:51 Clear 73 22.8 65 18.3 76 76 SSW 3 6 29.90 1012 10 16 0.00 0.00
2:51 am 02:51 Clear 74 23.3 66 18.9 76 76 Calm 29.89 1012 10 16 0.00 0.00
3:51 am 03:51 Clear 71 21.7 67 19.4 87 87 NNW 3 6 29.89 1012 10 16 0.00 0.00
4:51 am 04:51 Clear 71 21.7 68 20 90 90 ESE 3 6 29.90 1013 10 16 0.00 0.00
5:51 am 05:51 Mostly Cloudy 70 21.1 68 20 93 93 E 3 6 29.96 1015 10 16 0.00 0.00
6:51 am 06:51 Mostly Sunny 75 23.9 67 19.4 76 76 Calm 29.94 1014 10 16 0.00 0.00
7:51 am 07:51 Sunny 77 25 65 18.3 66 66 WNW 6 9 29.96 1015 10 16 0.00 0.00
8:51 am 08:51 Sunny 80 26.7 65 18.3 60 60 VRB 3 6 29.96 1015 10 16 0.00 0.00
9:51 am 09:51 Sunny 82 27.8 65 18.3 56 56 Calm 29.96 1015 10 16 0.00 0.00
10:51 am 10:51 Sunny 86 30 64 17.8 48 48 Calm 29.93 1014 10 16 0.00 0.00
11:51 am 11:51 Sunny 89 31.7 63 17.2 42 42 NNW 6 9 29.91 1013 10 16 0.00 0.00
12:51 pm 12:51 Sunny 91 32.8 62 16.7 38 38 SSW 9 15 29.88 1012 10 16 0.00 0.00
1:51 pm 13:51 Sunny 92 33.3 62 16.7 37 37 SW 7 11 29.86 1011 10 16 0.00 0.00
2:51 pm 14:51 Sunny 94 34.4 60 15.6 33 33 Calm 29.80 1009 10 16 0.00 0.00
3:51 pm 15:51 Sunny 95 35 60 15.6 32 32 NNW 7 11 29.80 1009 10 16 0.00 0.00
4:51 pm 16:51 Sunny 93 33.9 60 15.6 34 34 undefined N/A 29.79 1009 10 16 0.00 0.00
5:51 pm 17:51 Sunny 91 32.8 61 16.1 37 37 E 8 13 29.78 1008 10 16 0.00 0.00
6:51 pm 18:51 Mostly Sunny 89 31.7 61 16.1 39 39 E 9 15 29.81 1010 10 16 0.00 0.00
7:03 pm 19:03 Mostly Cloudy with Nearby Thunderstorms 89 31.7 61 16.1 39 39 ESE 7 11 29.73 1007 10 16 0.00 0.00
7:18 pm 19:18 Cloudy 88 31.1 60 15.6 39 39 SE 9 15 29.75 1007 10 16 0.00 0.00
7:51 pm 19:51 Mostly Cloudy 86 30 62 16.7 45 45 SE 13 20 29.84 1011 10 16 0.00 0.00
8:51 pm 20:51 Mostly Cloudy 78 25.6 64 17.8 62 62 SSE 23 37 29.93 1014 10 16 0.00 0.00
9:01 pm 21:01 Mostly Cloudy with Nearby Thunderstorms 76 24.4 65 18.3 69 69 S 20 31 29.92 1013 10 16 0.00 0.00
9:11 pm 21:11 Mostly Cloudy with Thunderstorms 75 23.9 64 17.8 69 69 SSE 16 26 29.93 1014 10 16 0.00 0.00
9:27 pm 21:27 Mostly Cloudy with Nearby Thunderstorms 76 24.4 63 17.2 64 64 SSW 9 15 29.93 1013 10 16 0.00 0.00
9:37 pm 21:37 Cloudy 77 25 62 16.7 60 60 VRB 3 6 29.94 1014 10 16 0.00 0.00
9:51 pm 21:51 Mostly Cloudy 76 24.4 62 16.7 62 62 E 5 7 29.98 1015 10 16 0.00 0.00
10:51 pm 22:51 Cloudy with Nearby Thunderstorms 72 22.2 65 18.3 79 79 E 3 6 30.00 1016 10 16 0.01 0.13
11:08 pm 23:08 Mostly Cloudy with Light Rain 72 22.2 66 18.9 82 82 NE 3 6 29.99 1016 10 16 0.01 0.13
11:51 pm 23:51 Mostly Cloudy 74 23.3 68 20 82 82 Calm 29.97 1015 10 16 0.02 0.51

Powered by AerisWeather